Погода в Кочкурове

Россия / Нижегородская область     54°45′30″N   44°59′41″E
темп.,
°C
ветер,
м/с
пор.,
м/с
влажн.,
%
обл.,
%
осадки,
мм/ч
давл.,
гПа
погр.,
м
24 июля, сб
сб2400:00+13з37835 0.1 1006126
03:00+11зсз36932 0.1 1007115
06:00+14сз25795 0.0 1008186
09:00+19сз455924 0.0 10091068
12:00+20сз354897 0.1 10101537
15:00+20ссз464685 0.1 10111719
18:00+19с45581 0.1 1013812
21:00+13с22820 0.2 101529
25 июля, вс
вс2500:00+11с11890 0.0 101710
03:00+10с22891 0.0 101913
06:00+12ссв23670 0.0 1020123
09:00+18ссв23450 0.0 1021913
12:00+21с33322 0.0 10212324
15:00+22ссз233125 0.0 10212510
18:00+19ссз4747100 0.0 1021243
21:00+17с1147100 0.0 102212
26 июля, пн
пн2600:00+16зюз1148100 0.0 102312
03:00+14сз225466 0.0 102424
06:00+15з115519 0.0 102461
09:00+21з233718 0.0 1024731
12:00+24з222863 0.0 10242785
15:00+24зсз232978 0.0 10232582
18:00+20з244799 0.0 102284
21:00+16з225491 0.0 102311
27 июля, вт
вт2700:00+15з22585 0.0 102310
03:00+14зсз34638 0.0 102348
06:00+16з38625 0.0 1023202
09:00+23зсз46456 0.0 1022722
12:00+27сз573594 0.0 10202672
15:00+25сз4645100 0.0 10201493
18:00+22ссз235082 0.0 1019196
21:00+20сз356093 0.0 1020103
28 июля, ср
ср2800:00+15з348374 0.0 102048
03:00+14сз22865 0.0 102034
06:00+16сз23735 0.0 1019114
09:00+23зсз23530 0.0 1019729
12:00+27зсз35395 0.0 10171933
15:00+26зюз2442100 0.0 1015806
18:00+26юз35435 0.0 1014342
21:00+22юз354814 0.0 101488